Location: Demmingen
(48.6757°N, 10.4375°E)
Time: 05:15:13
(UTC+00:00)

CZ-2C R/B - Pass Details

Date: 10 August 2024
Orbit: 782 x 869 km, 98.3° (Epoch: 08 September)

Event Time Altitude Azimuth Distance (km) Brightness Sun altitude
Exits shadow 02:30:56 18° 246° (WSW) 1,998 4.1 -13.6°
Maximum altitude 02:32:41 20° 270° (W) 1,859 4.1 -13.4°
Drops below altitude 10° 02:36:41 10° 317° (NW) 2,468 5.1 -12.9°
Sets 02:39:41 0° 334° (NNW) 3,391 6.1 -12.6°
